Regional Weather Roundup
Issued by NWS Boston, MA

Current Version | Previous Version | Text Only | Print | Product List | Glossary Off
Versions: 1 2 3 4 5 6 7 8 9 10 11 12 13 14 15 16 17 18 19 20 21 22 23 24 25 26 27 28 29 30 31 32 33 34 35 36 37 38 39 40 41 42 43 44 45 46 47 48 49 50
000 ASUS41 KBOX 201310 RWRBOX REGIONAL WEATHER ROUNDUP NATIONAL WEATHER SERVICE BOSTON/NORTON MA 900 AM EDT FRI APR 20 2018 NOTE: "FAIR" INDICATES FEW OR NO CLOUDS BELOW 12,000 FEET WITH NO SIGNIFICANT WEATHER AND/OR OBSTRUCTIONS TO VISIBILITY. MAZALL-201400- EASTERN MASSACHUSETTS CITY SKY/WX TMP DP RH WIND PRES REMARKS BOSTON PTSUNNY 41 26 55 NW21G31 29.97R WCI 32 BEVERLY PTSUNNY 42 28 57 NW22G30 29.94R LAWRENCE CLOUDY 43 27 53 NW10G24 29.98R BEDFORD FAIR 41 26 55 W18G25 29.97R BLUE HILL N/A 38 27 64 NW14G26 29.94R WCI 30 NORWOOD CLOUDY 43 28 55 NW16G24 29.98R MARSHFIELD FAIR 41 28 60 NW13G24 29.96R PLYMOUTH PTSUNNY 41 27 57 NW14 29.97R TAUNTON PTSUNNY 42 26 53 NW10G24 29.98R NEW BEDFORD PTSUNNY 40 25 55 NW10G23 29.98R $$ MAZALL-201400- CAPE COD AND THE ISLANDS CITY SKY/WX TMP DP RH WIND PRES REMARKS FALMOUTH FAIR 39 27 60 NW15G26 29.97 WCI 31 HYANNIS FAIR 41 29 62 NW14G25 29.94R CHATHAM FAIR 41 30 65 NW10G23 29.95R PROVINCETOWN FAIR 41 30 65 NW18G26 29.96R NANTUCKET FAIR 41 31 67 NW22G28 29.97R WCI 31 MARTHAS VNYRD FAIR 41 28 60 NW16G23 29.98R $$ MAZALL-201400- CENTRAL AND WESTERN MASSACHUSETTS CITY SKY/WX TMP DP RH WIND PRES REMARKS WORCESTER FAIR 35 23 61 NW23G32 29.97R WCI 23 FITCHBURG PTSUNNY 42 26 53 NW15G30 30.00R ORANGE CLOUDY 37 24 59 NW13G22 30.03R WCI 29 SPRINGFIELD MOSUNNY 40 23 51 N15 30.04R WCI 32 WESTFIELD FAIR 38 24 57 NW22G29 30.05R WCI 27 NORTH ADAMS CLOUDY 33 24 69 W16 30.08R WCI 23 PITTSFIELD CLOUDY 33 23 66 NW14G24 30.06R WCI 23 $$ RIZALL-201400- RHODE ISLAND CITY SKY/WX TMP DP RH WIND PRES REMARKS PROVIDENCE PTSUNNY 40 27 59 NW16G28 30.01R WCI 31 NEWPORT PTSUNNY 40 28 62 NW16 30.00R WCI 31 BLOCK ISLAND FAIR 40 27 59 NW13G23 30.04R SMITHFIELD FAIR 39 26 59 MISG 29.99R WESTERLY FAIR 41 26 55 NW12G25 30.03R $$ CTZALL-201400- CONNECTICUT CITY SKY/WX TMP DP RH WIND PRES REMARKS BRADLEY INTL FAIR 40 23 50 NW20G26 30.07R WCI 30 HARTFORD FAIR 40 24 53 NW13G22 30.08R BRIDGEPORT FAIR 41 23 48 NW18G31 30.09S DANBURY FAIR 37 22 54 NW9G23 30.11R WCI 30 GROTON FAIR 41 25 53 NW17G28 30.03S NEW HAVEN FAIR 40 22 48 NW18G26 30.08R WCI 31 CHESTER FAIR 39 21 48 NW17G28 30.04S WCI 30 MERIDEN FAIR 39 22 50 NW15G25 30.08R WCI 31 WILLIMANTIC FAIR 39 24 55 NW14G24 30.05R WCI 31 OXFORD FAIR 35 22 58 NW15G26 30.08R WCI 25 $$ MEZ002-015-021-024-NHZ003-005-008-011-012-014-VTZ005-008-201400- NORTHERN NEW ENGLAND CITY SKY/WX TMP DP RH WIND PRES REMARKS PORTLAND ME FAIR 44 32 62 NW18G26 29.90R BANGOR ME LGT RAIN 39 36 89 NW13 29.84R WCI 31 CONCORD NH FAIR 41 26 55 NW23G32 29.97R WCI 31 MANCHESTER NH PTSUNNY 43 24 47 NW22G28 29.96R NASHUA NH PTSUNNY 41 25 53 NW18 29.98R PORTSMOUTH NH MOSUNNY 43 27 53 NW17G28 29.92R JAFFREY NH CLOUDY 35 25 66 N12G20 29.99R WCI 27 KEENE NH CLOUDY 37 24 59 NW10G17 30.03R WCI 30 BURLINGTON VT LGT SNOW 33 28 81 NW10 30.10R WCI 25 MT. WASHINGTON SNOW 14 14 100 NW39G48 N/A VSB 0 WCI -9 $$ NYZ052-076-201400- EASTERN NEW YORK CITY SKY/WX TMP DP RH WIND PRES REMARKS ALBANY CLOUDY 36 22 56 W16G23 30.14R WCI 26 NEW YORK CITY FAIR 40 23 50 NW22G31 30.14R WCI 30 $$ ANZALL-201400- MARINE OBSERVATIONS STATION/POSITION TIME TEMP WIND PRES VSBY WAVE AIR SEA DIR/SP/G HT/PER (UTC) (F) (DEG/KT/KT) (MB) (MI) (FT/S) BOSTON BUOY 1250 40 42 300/ 21/ 25 1013.4R 3/ 4 BUZZARDS BAY 1200 38 310/ 22/ 26 1015.8R NANTUCKET SOUND 1150 38 42 300/ 19/ 25 1013.5 3/ 4 MASS BAY-STELLWA 1204 38 41 1012.1R 2/ 3 ISLE OF SHOALS 1300 40 300/ 26/ 28 1012.5R S OF BLOCK IS 1243 41 N/A 7/ 5 $$ ......................KEY......................... SKY/WX - SKY CONDITION/PRESENT WEATHER TMP - TEMPERATURE IN FAHRENHEIT DWPT - DEWPOINT IN FAHRENHEIT RH - RELATIVE HUMIDITY IN PERCENT WIND - DIRECTION AND SPEED IN MPH PRES - MEAN SEA LEVEL PRESSURE IN INCHES OF HG WCI - WIND CHILL INDEX VSB - VISIBILITY IN MILES HX - HEAT INDEX TC - TEMPERATURE IN CELSIUS VRB - VARIABLE WIND DIRECTION N/A - NOT AVAILABLE

USA.gov is the U.S. government's official web portal to all federal, state and local government web resources and services.